Track GLOBALSTAR M091 now! 10-day predictions GLOBALSTAR M091 is classified as:
1 37741U 11033C 22224.22984056 -.00000120 00000-0 -88544-4 0 9996 2 37741 51.9975 199.2214 0000399 98.8894 274.2835 12.62267106512119